| time (UTC) | temp C | wind direction | speed KPH | gust KPH | rain 1hr cm | rain 24hr cm | rain mn cm | humidity % | barometer mb |
| 20260507070217 | 7 | 0 | 0.0 | 0.0 | 0.00 | 0.00 | 0.00 | 85 | 1018.7 |
| 20260507065003 | 7 | 0 | 0.0 | 0.0 | 0.00 | 0.00 | 0.00 | 84 | 1018.8 |
| 20260507064003 | 8 | 0 | 0.0 | 0.0 | 0.00 | 0.00 | 0.00 | 84 | 1018.9 |
| 20260507063003 | 8 | 0 | 0.0 | 0.0 | 0.00 | 0.00 | 0.00 | 84 | 1018.9 |
| 20260507062221 | 8 | 0 | 0.0 | 0.0 | 0.00 | 0.00 | 0.00 | 83 | 1018.8 |
| 20260507061003 | 8 | 0 | 0.0 | 0.0 | 0.00 | 0.00 | 0.00 | 83 | 1018.7 |
| 20260507060003 | 8 | 0 | 0.0 | 0.0 | 0.00 | 0.00 | 0.00 | 82 | 1018.6 |
| 20260507055003 | 8 | 0 | 0.0 | 0.0 | 0.00 | 0.00 | 0.00 | 81 | 1018.4 |
| 20260507054003 | 8 | 0 | 0.0 | 0.0 | 0.00 | 0.00 | 0.00 | 81 | 1018.5 |
| 20260507053003 | 8 | 0 | 0.0 | 0.0 | 0.00 | 0.00 | 0.00 | 80 | 1018.5 |
| 20260507052003 | 9 | 0 | 0.0 | 0.0 | 0.00 | 0.00 | 0.00 | 80 | 1018.3 |
| 20260507051003 | 9 | 0 | 0.0 | 0.0 | 0.00 | 0.00 | 0.00 | 79 | 1018.4 |
| 20260507050004 | 9 | 0 | 0.0 | 0.0 | 0.00 | 0.00 | 0.00 | 80 | 1018.4 |
| 20260507045219 | 9 | 0 | 0.0 | 0.0 | 0.00 | 0.00 | 0.00 | 80 | 1018.3 |
| 20260507044003 | 8 | 0 | 0.0 | 0.0 | 0.00 | 0.00 | 0.00 | 79 | 1018.2 |
| 20260507043003 | 8 | 0 | 0.0 | 0.0 | 0.00 | 0.00 | 0.00 | 79 | 1018.2 |
| 20260507042004 | 9 | 0 | 0.0 | 0.0 | 0.00 | 0.00 | 0.00 | 78 | 1018.3 |
| 20260507041003 | 9 | 0 | 0.0 | 0.0 | 0.00 | 0.00 | 0.00 | 77 | 1018.2 |
| 20260507040003 | 10 | 0 | 0.0 | 0.0 | 0.00 | 0.00 | 0.00 | 76 | 1018.2 |
| 20260507035220 | 10 | 0 | 0.0 | 0.0 | 0.00 | 0.00 | 0.00 | 75 | 1018.4 |
| 20260507034003 | 10 | 0 | 0.0 | 0.0 | 0.00 | 0.00 | 0.00 | 74 | 1018.0 |
| 20260507033003 | 10 | 0 | 0.0 | 0.0 | 0.00 | 0.00 | 0.00 | 73 | 1017.9 |
| 20260507032003 | 11 | 0 | 0.0 | 0.0 | 0.00 | 0.00 | 0.00 | 71 | 1017.8 |
| 20260507031003 | 11 | 0 | 0.0 | 0.0 | 0.00 | 0.00 | 0.00 | 69 | 1017.8 |
| 20260507030219 | 11 | 0 | 0.0 | 0.0 | 0.00 | 0.00 | 0.00 | 67 | 1017.7 |
| 20260507025003 | 12 | 0 | 0.0 | 0.0 | 0.00 | 0.00 | 0.00 | 65 | 1017.6 |
| 20260507024003 | 12 | 0 | 0.0 | 0.0 | 0.00 | 0.00 | 0.00 | 63 | 1017.5 |
| 20260507023003 | 13 | 0 | 0.0 | 0.0 | 0.00 | 0.00 | 0.00 | 61 | 1017.5 |
| 20260507022003 | 13 | 0 | 0.0 | 0.0 | 0.00 | 0.00 | 0.00 | 59 | 1017.3 |
| 20260507021003 | 14 | 341 | 0.0 | 1.6 | 0.00 | 0.00 | 0.00 | 57 | 1017.3 |
| 20260507020003 | 14 | 341 | 1.6 | 8.0 | 0.00 | 0.00 | 0.00 | 56 | 1017.2 |
| 20260507015003 | 15 | 0 | 0.0 | 0.0 | 0.00 | 0.00 | 0.00 | 55 | 1017.1 |
| 20260507014003 | 15 | 340 | 1.6 | 11.3 | 0.00 | 0.00 | 0.00 | 54 | 1016.9 |
| 20260507013003 | 15 | 350 | 0.0 | 6.4 | 0.00 | 0.00 | 0.00 | 55 | 1016.7 |
| 20260507012003 | 15 | 0 | 0.0 | 0.0 | 0.00 | 0.00 | 0.00 | 55 | 1016.6 |
| 20260507011003 | 15 | 0 | 0.0 | 0.0 | 0.00 | 0.00 | 0.00 | 54 | 1016.5 |
| 20260507010221 | 16 | 6 | 0.0 | 1.6 | 0.00 | 0.00 | 0.00 | 53 | 1016.4 |
| 20260507005221 | 16 | 2 | 1.6 | 11.3 | 0.00 | 0.00 | 0.00 | 52 | 1016.3 |
| 20260507004217 | 16 | 358 | 3.2 | 17.7 | 0.00 | 0.00 | 0.00 | 51 | 1016.2 |
| 20260507003003 | 16 | 352 | 1.6 | 8.0 | 0.00 | 0.00 | 0.00 | 50 | 1016.0 |
| 20260507002219 | 16 | 351 | 0.0 | 6.4 | 0.00 | 0.00 | 0.00 | 50 | 1016.0 |
| 20260507001003 | 17 | 12 | 1.6 | 8.0 | 0.00 | 0.00 | 0.00 | 50 | 1016.0 |
| 20260507000221 | 17 | 358 | 1.6 | 11.3 | 0.00 | 0.00 | 0.00 | 50 | 1015.9 |
| 20260506235003 | 17 | 15 | 3.2 | 12.9 | 0.00 | 0.00 | 0.00 | 49 | 1015.8 |
| 20260506234003 | 18 | 11 | 1.6 | 11.3 | 0.00 | 0.00 | 0.00 | 48 | 1015.8 |
| 20260506233003 | 18 | 68 | 0.0 | 3.2 | 0.00 | 0.00 | 0.00 | 48 | 1015.8 |
| 20260506232220 | 18 | 353 | 1.6 | 12.9 | 0.00 | 0.00 | 0.00 | 48 | 1015.7 |
| 20260506231003 | 18 | 350 | 1.6 | 9.7 | 0.00 | 0.00 | 0.00 | 47 | 1015.6 |
| 20260506230003 | 18 | 21 | 3.2 | 16.1 | 0.00 | 0.00 | 0.00 | 46 | 1015.4 |
| 20260506225003 | 19 | 37 | 3.2 | 12.9 | 0.00 | 0.00 | 0.00 | 49 | 1015.3 |
| 20260506224003 | 18 | 3 | 3.2 | 14.5 | 0.00 | 0.00 | 0.00 | 50 | 1015.2 |
| 20260506223003 | 18 | 7 | 4.8 | 9.7 | 0.00 | 0.00 | 0.00 | 47 | 1015.2 |
| 20260506222003 | 19 | 357 | 3.2 | 12.9 | 0.00 | 0.00 | 0.00 | 49 | 1015.1 |
| 20260506221003 | 18 | 360 | 3.2 | 12.9 | 0.00 | 0.00 | 0.00 | 50 | 1015.0 |
| 20260506220004 | 18 | 3 | 4.8 | 14.5 | 0.00 | 0.00 | 0.00 | 50 | 1015.0 |
| 20260506215003 | 18 | 342 | 4.8 | 17.7 | 0.00 | 0.00 | 0.00 | 47 | 1015.0 |
| 20260506214003 | 18 | 347 | 4.8 | 17.7 | 0.00 | 0.00 | 0.00 | 50 | 1015.1 |
| 20260506213003 | 18 | 1 | 1.6 | 11.3 | 0.00 | 0.00 | 0.00 | 49 | 1015.0 |
| 20260506212221 | 18 | 40 | 1.6 | 11.3 | 0.00 | 0.00 | 0.00 | 49 | 1015.0 |
| 20260506211217 | 18 | 18 | 3.2 | 12.9 | 0.00 | 0.00 | 0.00 | 50 | 1015.2 |
| 20260506210003 | 18 | 33 | 1.6 | 6.4 | 0.00 | 0.00 | 0.00 | 54 | 1015.3 |
| 20260506205219 | 17 | 37 | 4.8 | 12.9 | 0.00 | 0.00 | 0.00 | 50 | 1015.3 |
| 20260506204003 | 18 | 4 | 3.2 | 16.1 | 0.00 | 0.00 | 0.00 | 48 | 1015.6 |
| 20260506203003 | 18 | 15 | 3.2 | 16.1 | 0.00 | 0.00 | 0.00 | 49 | 1015.8 |
| 20260506202003 | 18 | 349 | 4.8 | 11.3 | 0.00 | 0.00 | 0.00 | 50 | 1015.8 |
| 20260506201004 | 18 | 350 | 3.2 | 12.9 | 0.00 | 0.00 | 0.00 | 55 | 1015.9 |
| 20260506200003 | 17 | 359 | 1.6 | 17.7 | 0.00 | 0.00 | 0.00 | 53 | 1015.9 |
| 20260506195220 | 18 | 5 | 3.2 | 9.7 | 0.00 | 0.00 | 0.00 | 52 | 1015.9 |
| 20260506194003 | 18 | 49 | 3.2 | 9.7 | 0.00 | 0.00 | 0.00 | 52 | 1015.8 |
| 20260506193003 | 17 | 353 | 3.2 | 12.9 | 0.00 | 0.00 | 0.00 | 53 | 1016.0 |
| 20260506192004 | 17 | 2 | 3.2 | 14.5 | 0.00 | 0.00 | 0.00 | 52 | 1016.2 |
| 20260506191003 | 17 | 349 | 3.2 | 11.3 | 0.00 | 0.00 | 0.00 | 55 | 1016.3 |
| 20260506190004 | 17 | 3 | 4.8 | 12.9 | 0.00 | 0.00 | 0.00 | 56 | 1016.6 |
| 20260506185003 | 17 | 358 | 3.2 | 12.9 | 0.00 | 0.00 | 0.00 | 56 | 1016.6 |
| 20260506184003 | 17 | 10 | 3.2 | 16.1 | 0.00 | 0.00 | 0.00 | 54 | 1016.7 |
| 20260506183003 | 17 | 37 | 3.2 | 14.5 | 0.00 | 0.00 | 0.00 | 58 | 1017.0 |
| 20260506182218 | 17 | 24 | 1.6 | 11.3 | 0.00 | 0.00 | 0.00 | 58 | 1017.0 |
| 20260506181219 | 17 | 13 | 4.8 | 12.9 | 0.00 | 0.00 | 0.00 | 55 | 1017.1 |
| 20260506180004 | 18 | 61 | 3.2 | 12.9 | 0.00 | 0.00 | 0.00 | 56 | 1017.0 |
| 20260506175221 | 18 | 35 | 3.2 | 11.3 | 0.00 | 0.00 | 0.00 | 54 | 1017.2 |
| 20260506174003 | 18 | 62 | 3.2 | 11.3 | 0.00 | 0.00 | 0.00 | 55 | 1017.2 |
| 20260506173003 | 17 | 18 | 3.2 | 14.5 | 0.00 | 0.00 | 0.00 | 57 | 1017.6 |
| 20260506172003 | 17 | 11 | 3.2 | 11.3 | 0.00 | 0.00 | 0.00 | 54 | 1017.9 |
| 20260506171003 | 17 | 68 | 3.2 | 16.1 | 0.00 | 0.00 | 0.00 | 57 | 1018.3 |
| 20260506170004 | 16 | 57 | 1.6 | 9.7 | 0.00 | 0.00 | 0.00 | 57 | 1018.2 |
| 20260506165003 | 16 | 61 | 1.6 | 9.7 | 0.00 | 0.00 | 0.00 | 60 | 1018.4 |
| 20260506164004 | 15 | 72 | 1.6 | 4.8 | 0.00 | 0.00 | 0.00 | 59 | 1018.2 |
| 20260506163003 | 16 | 67 | 1.6 | 17.7 | 0.00 | 0.00 | 0.00 | 56 | 1017.9 |
| 20260506162003 | 16 | 10 | 3.2 | 9.7 | 0.00 | 0.00 | 0.00 | 59 | 1018.2 |
| 20260506161003 | 16 | 18 | 3.2 | 14.5 | 0.00 | 0.00 | 0.00 | 58 | 1018.1 |
| 20260506160003 | 15 | 34 | 1.6 | 9.7 | 0.00 | 0.00 | 0.00 | 60 | 1017.9 |
| 20260506155003 | 15 | 45 | 1.6 | 8.0 | 0.00 | 0.00 | 0.00 | 63 | 1017.8 |
| 20260506154003 | 15 | 14 | 3.2 | 11.3 | 0.00 | 0.00 | 0.00 | 64 | 1017.6 |
| 20260506153219 | 15 | 13 | 3.2 | 14.5 | 0.00 | 0.00 | 0.00 | 63 | 1017.4 |
| 20260506152003 | 14 | 40 | 3.2 | 12.9 | 0.00 | 0.00 | 0.00 | 63 | 1016.9 |
| 20260506151221 | 13 | 39 | 3.2 | 14.5 | 0.00 | 0.00 | 0.00 | 65 | 1016.7 |
| 20260506150003 | 13 | 79 | 3.2 | 11.3 | 0.00 | 0.00 | 0.00 | 67 | 1016.6 |
| 20260506145003 | 12 | 89 | 3.2 | 11.3 | 0.00 | 0.00 | 0.00 | 68 | 1016.6 |
| 20260506144003 | 12 | 76 | 3.2 | 12.9 | 0.00 | 0.00 | 0.00 | 69 | 1016.8 |
| 20260506143219 | 12 | 46 | 0.0 | 11.3 | 0.00 | 0.00 | 0.00 | 70 | 1016.8 |
| 20260506142003 | 12 | 28 | 3.2 | 16.1 | 0.00 | 0.00 | 0.00 | 71 | 1016.6 |
| 20260506141003 | 11 | 63 | 3.2 | 9.7 | 0.00 | 0.00 | 0.00 | 73 | 1016.7 |
| 20260506140004 | 11 | 29 | 3.2 | 9.7 | 0.00 | 0.00 | 0.00 | 74 | 1016.7 |
| 20260506135003 | 11 | 46 | 3.2 | 12.9 | 0.00 | 0.00 | 0.00 | 75 | 1016.9 |
| 20260506134003 | 11 | 41 | 3.2 | 11.3 | 0.00 | 0.00 | 0.00 | 76 | 1017.0 |
| 20260506133003 | 10 | 26 | 3.2 | 14.5 | 0.00 | 0.00 | 0.00 | 77 | 1017.1 |
| 20260506132003 | 10 | 40 | 4.8 | 17.7 | 0.00 | 0.00 | 0.00 | 76 | 1016.9 |
| 20260506131003 | 10 | 36 | 3.2 | 19.3 | 0.00 | 0.00 | 0.00 | 77 | 1017.0 |
| 20260506130003 | 10 | 31 | 3.2 | 9.7 | 0.00 | 0.00 | 0.00 | 79 | 1016.7 |
| 20260506125003 | 10 | 21 | 4.8 | 17.7 | 0.00 | 0.00 | 0.00 | 80 | 1016.7 |
| 20260506124003 | 10 | 8 | 3.2 | 11.3 | 0.00 | 0.00 | 0.00 | 82 | 1016.4 |
| 20260506123004 | 10 | 349 | 0.0 | 12.9 | 0.00 | 0.00 | 0.00 | 83 | 1016.6 |
| 20260506122217 | 9 | 351 | 3.2 | 17.7 | 0.00 | 0.00 | 0.00 | 84 | 1016.4 |
| 20260506121003 | 9 | 5 | 3.2 | 19.3 | 0.00 | 0.00 | 0.00 | 83 | 1015.9 |
| 20260506120004 | 9 | 6 | 3.2 | 11.3 | 0.00 | 0.00 | 0.00 | 82 | 1015.9 |
| 20260506115003 | 9 | 353 | 4.8 | 17.7 | 0.00 | 0.00 | 0.00 | 82 | 1016.2 |
| 20260506114003 | 9 | 347 | 4.8 | 12.9 | 0.00 | 0.00 | 0.00 | 82 | 1016.2 |
| 20260506113003 | 9 | 347 | 6.4 | 19.3 | 0.00 | 0.00 | 0.00 | 82 | 1016.0 |
| 20260506112217 | 9 | 347 | 4.8 | 16.1 | 0.00 | 0.00 | 0.00 | 82 | 1016.2 |
| 20260506111004 | 9 | 347 | 3.2 | 12.9 | 0.00 | 0.00 | 0.00 | 82 | 1016.2 |
| 20260506110003 | 10 | 342 | 3.2 | 14.5 | 0.00 | 0.00 | 0.00 | 82 | 1015.9 |
| 20260506105003 | 10 | 344 | 1.6 | 9.7 | 0.00 | 0.00 | 0.00 | 82 | 1015.5 |
| 20260506104003 | 10 | 350 | 1.6 | 9.7 | 0.00 | 0.00 | 0.00 | 81 | 1015.4 |
| 20260506103217 | 10 | 353 | 1.6 | 8.0 | 0.00 | 0.00 | 0.00 | 81 | 1015.3 |
| 20260506102003 | 10 | 349 | 3.2 | 12.9 | 0.00 | 0.00 | 0.00 | 81 | 1015.4 |
| 20260506101003 | 10 | 349 | 1.6 | 12.9 | 0.00 | 0.00 | 0.00 | 81 | 1015.2 |
| 20260506100004 | 10 | 346 | 1.6 | 8.0 | 0.00 | 0.00 | 0.00 | 81 | 1015.0 |
| 20260506095003 | 10 | 348 | 1.6 | 6.4 | 0.00 | 0.00 | 0.00 | 80 | 1015.0 |
| 20260506094222 | 10 | 343 | 3.2 | 11.3 | 0.00 | 0.00 | 0.00 | 80 | 1014.7 |
| 20260506093004 | 10 | 346 | 3.2 | 16.1 | 0.00 | 0.00 | 0.00 | 80 | 1014.5 |
| 20260506092219 | 10 | 346 | 3.2 | 11.3 | 0.00 | 0.00 | 0.00 | 80 | 1013.9 |
| 20260506091003 | 10 | 347 | 3.2 | 9.7 | 0.00 | 0.00 | 0.00 | 79 | 1013.6 |
| 20260506090003 | 10 | 345 | 3.2 | 19.3 | 0.00 | 0.00 | 0.00 | 78 | 1013.3 |
| 20260506085003 | 10 | 345 | 3.2 | 9.7 | 0.00 | 0.00 | 0.00 | 77 | 1013.4 |
| 20260506084003 | 10 | 354 | 1.6 | 11.3 | 0.00 | 0.00 | 0.00 | 76 | 1013.2 |
| 20260506083003 | 10 | 349 | 1.6 | 9.7 | 0.00 | 0.00 | 0.00 | 75 | 1012.9 |
| 20260506082003 | 10 | 4 | 3.2 | 12.9 | 0.00 | 0.00 | 0.00 | 75 | 1012.8 |
| 20260506081220 | 10 | 19 | 3.2 | 11.3 | 0.00 | 0.00 | 0.00 | 75 | 1013.0 |
| 20260506073003 | 10 | 35 | 0.0 | 8.0 | 0.00 | 0.00 | 0.00 | 75 | 1012.7 |
| 20260506072220 | 10 | 28 | 1.6 | 6.4 | 0.00 | 0.00 | 0.00 | 75 | 1012.7 |
| 20260506071003 | 10 | 8 | 1.6 | 8.0 | 0.00 | 0.00 | 0.00 | 74 | 1012.8 |